[[{"header":{"parameterUnit":"m.s-1","parameterCategory":1,"la1":30.2991,"la2":30.254,"lo1":-89.0895,"lo2":-89.0444,"dy":0.0017,"dx":0.0017,"nx":28,"ny":28,"refTime":"2024-03-21T03:00:00:Z","depth":0,"parameterNumber":2,"parameterNumberName":"U-component_of_WINDS"},"data":[0,0,0,0,0,0,0,0,0,0,0,0,0,0,0,0,0,0,0,0,0,0,0,0,0,0,0,0,0,0,0,0,0,0,0,0,0,0,0,0,0,0,0,0,0,0,0,0,0,0,0,0,0,0,0,0,0,0,1.9645,1.9646,0,1.9756,1.9758,1.9759,1.9774,1.9773,1.9772,1.9771,1.9885,1.9889,1.9892,0,0,0,0,0,0,0,0,0,0,0,0,0,1.9442,1.9446,1.9645,1.9646,1.9648,1.9756,1.9758,1.9759,1.9774,1.9773,1.9772,1.977,1.9883,1.9888,1.9893,0,0,0,0,0,0,0,0,0,0,0,0,0,1.954,1.9447,1.9644,1.9668,1.9671,1.9756,1.9758,1.976,1.9774,1.9773,1.9771,1.977,1.9882,1.9888,1.9893,1.9962,0,0,1.9912,1.9914,0,0,0,0,0,0,0,0,1.9534,1.9547,1.9663,1.9667,1.967,1.975,1.9728,1.9828,1.9775,1.9735,1.9771,1.9769,1.9841,1.985,1.9875,1.9967,1.9972,1.9912,1.9916,1.9919,1.992,0,0,0,0,0,0,0,1.9527,1.9542,1.9689,1.9665,1.9669,1.9672,1.9684,1.9747,1.9796,1.9739,1.974,1.9753,1.9843,1.9869,1.9877,1.9974,1.9912,1.9918,1.9921,1.9924,2.0126,2.0128,0,0,0,0,0,0,1.9517,1.9537,1.9685,1.9692,1.9597,1.9677,1.9691,1.9726,1.9795,1.9804,1.9754,1.9753,1.9859,1.987,1.9881,1.9964,1.9919,1.9924,1.9928,2.0124,2.0126,2.0128,0,0,0,0,0,0,1.9512,1.953,1.9681,1.9615,1.9634,1.9682,1.9722,1.9729,1.9755,1.9807,1.9815,1.9772,1.9858,1.9873,1.9941,1.9969,1.9927,1.9932,2.0122,2.0125,2.0127,2.0132,0,0,0,0,0,0,1.9506,1.9528,1.9555,1.9615,1.9638,1.974,1.9723,1.9732,1.9765,1.9765,1.9826,1.9834,1.9858,1.9932,1.9947,1.9976,1.9937,2.012,2.0123,2.0126,2.0129,2.0134,2.0138,0,0,0,0,0,1.9499,1.9553,1.9557,1.9574,1.9673,1.9741,1.9754,1.9781,1.9768,1.9795,1.9828,1.9832,1.9963,1.9939,1.9956,1.9987,2.0118,2.0122,2.0126,2.0127,2.0133,2.0138,0,0,0,0,0,0,1.9495,1.9561,1.9566,1.9641,1.9685,1.9744,1.9779,1.9786,1.9835,1.9833,1.9864,1.9877,1.9944,1.9973,1.9945,2.0056,2.0039,2.0047,2.0034,2.0041,2.0045,2.0036,1.9942,0,0,0,0,0,1.9502,1.9553,1.9608,1.9668,1.969,1.973,1.9761,1.9778,1.9825,1.9844,1.9882,1.9927,1.9978,2.0011,2.0061,2.0134,2.0146,2.0163,2.0168,2.0171,2.0177,2.0215,2.0223,2.0141,2.0141,2.0141,0,0,1.9519,1.9561,1.9591,1.9668,1.9705,1.9755,1.9746,1.9801,1.9838,1.9852,1.9918,1.9948,2.0,2.007,2.0103,2.0096,2.0202,2.0176,2.0179,2.0183,2.022,2.0228,2.0234,2.0144,2.0144,2.0143,0,0,1.9574,1.9612,1.9665,1.9702,1.9756,1.9783,1.9795,1.9852,1.9872,1.9939,1.995,1.9995,2.0083,2.0119,2.0149,2.0216,2.0221,2.0231,2.0254,2.0291,2.0297,2.0303,2.0325,2.0333,2.0237,2.0237,2.0237,0,1.9587,1.9664,1.9692,1.9745,1.9778,1.9793,1.9846,1.988,1.9948,1.997,1.9961,2.0071,2.0107,2.0185,2.0201,2.0225,2.0239,2.0224,2.0294,2.03,2.0306,2.0327,2.0336,2.0238,2.0238,2.0238,2.0238,0,1.9676,1.9729,1.9766,1.9831,1.9868,1.9921,1.9956,1.999,2.0003,2.0029,2.0096,2.014,2.0198,2.0218,2.0232,2.0297,2.0291,2.0288,2.0272,2.0314,2.0334,2.0343,2.0239,2.0239,2.0238,2.0238,0,0,1.9732,1.9811,1.9823,1.9852,1.9913,1.9954,2.0007,2.0064,2.0091,2.0138,2.0181,2.0255,2.0252,2.0286,2.0303,2.0336,2.0383,2.0329,2.033,2.0336,2.0455,2.0456,2.0465,2.0387,2.0389,2.0391,2.045,0,1.9793,1.9888,1.9914,1.9994,2.0042,2.0056,2.0102,2.0143,2.0169,2.0213,2.0242,2.0292,2.0286,2.0306,2.0339,2.037,2.0407,2.0367,2.0427,2.0429,2.0412,2.0476,2.0477,2.0531,2.0458,2.046,2.0461,0,1.9877,1.9924,2.0008,2.0061,2.0082,2.0123,2.0176,2.0218,2.0265,2.0281,2.0318,2.0332,2.0387,2.0368,2.0443,2.0414,2.0441,2.046,2.0462,2.0468,2.0446,2.0481,2.0549,2.0556,2.0474,2.0473,2.0472,0,1.9906,1.9991,2.0052,2.0076,2.014,2.0168,2.0195,2.0241,2.0272,2.0318,2.0339,2.0391,2.0419,2.0458,2.0485,2.047,2.0557,2.0541,2.0571,2.057,2.0587,2.0586,2.0659,2.0607,2.0607,2.0607,2.0607,0,1.997,2.0021,2.0066,2.0103,2.0159,2.0188,2.0243,2.0271,2.0311,2.0353,2.0369,2.0408,2.0443,2.0486,2.0508,2.0565,2.0578,2.0592,2.0596,2.0589,2.0587,2.0606,2.0602,2.0609,2.0608,2.0608,2.0608,0,2.0012,2.0045,2.0112,2.0166,2.018,2.0219,2.0265,2.0301,2.0328,2.0381,2.0395,2.0436,2.0487,2.0519,2.0585,2.0599,2.0661,2.0666,2.0645,2.0647,2.0674,2.067,2.076,2.0773,2.0714,2.0715,2.0715,0,2.005,2.009,2.0147,2.0177,2.0204,2.0252,2.0284,2.0313,2.0345,2.0401,2.043,2.0482,2.0526,2.0608,2.0643,2.0692,2.0697,2.0725,2.0705,2.0695,2.0695,2.0692,2.0695,2.0728,2.0729,2.0729,2.0729,0,2.0114,2.0127,2.0173,2.0224,2.0261,2.0303,2.0344,2.0367,2.0403,2.0438,2.0491,2.0525,2.0591,2.0643,2.0695,2.0723,2.0731,2.0736,2.0745,2.0737,2.0723,2.0729,2.0653,2.0733,2.0733,2.0732,2.0732,2.0732,2.0154,2.0188,2.0234,2.0284,2.0317,2.0355,2.0391,2.0421,2.0466,2.0522,2.0536,2.0591,2.0635,2.0707,2.0735,2.0778,2.0773,2.0787,2.079,2.0793,2.0792,2.0717,2.0788,2.0788,2.0788,2.0788,2.0788,0,2.0216,2.0246,2.0291,2.0348,2.0386,2.0392,2.0437,2.0469,2.0517,2.0557,2.0599,2.0659,2.0708,2.0747,2.0797,2.0824,2.0829,2.0836,2.0833,2.0839,2.0794,2.078,2.0831,2.0831,2.0831,2.0831,2.0831,2.0831,2.0253,2.0311,2.0329,2.0404,2.0433,2.0487,2.0512,2.0546,2.0578,2.0644,2.0685,2.071,2.0749,2.0802,2.0847,2.0857,2.0874,2.088,2.089,2.0848,2.0843,2.0838,2.0825,2.0884,2.0884,2.0932,2.0932,2.0932]},{"header":{"parameterUnit":"m.s-1","parameterCategory":1,"la1":30.2991,"la2":30.254,"lo1":-89.0895,"lo2":-89.0444,"dy":0.0017,"dx":0.0017,"nx":28,"ny":28,"refTime":"2024-03-21T03:00:00:Z","depth":0,"parameterNumber":3,"parameterNumberName":"V-component_of_WINDS"},"data":[0,0,0,0,0,0,0,0,0,0,0,0,0,0,0,0,0,0,0,0,0,0,0,0,0,0,0,0,0,0,0,0,0,0,0,0,0,0,0,0,0,0,0,0,0,0,0,0,0,0,0,0,0,0,0,0,0,0,3.0085,3.0085,0,3.0111,3.0111,3.0112,3.0074,3.0073,3.0071,3.007,3.0097,3.0098,3.01,0,0,0,0,0,0,0,0,0,0,0,0,0,2.9999,3.0001,3.0085,3.0085,3.0085,3.0111,3.0111,3.0112,3.0074,3.0073,3.0071,3.007,3.0096,3.0098,3.01,0,0,0,0,0,0,0,0,0,0,0,0,0,3.0032,3.0002,3.0085,3.007,3.0069,3.0111,3.0111,3.0112,3.0075,3.0073,3.0071,3.0069,3.0095,3.0098,3.0101,3.0159,0,0,3.011,3.0111,0,0,0,0,0,0,0,0,3.003,3.0035,3.0072,3.0071,3.007,3.0087,3.0091,3.0128,3.0075,3.0072,3.007,3.0068,3.0095,3.0098,3.0107,3.016,3.0161,3.011,3.0112,3.0113,3.0114,0,0,0,0,0,0,0,3.0028,3.0034,3.0095,3.0072,3.0071,3.0061,3.0063,3.0098,3.0095,3.0072,3.007,3.0074,3.0094,3.0104,3.0107,3.0161,3.011,3.0112,3.0114,3.0115,3.026,3.0262,0,0,0,0,0,0,3.0028,3.0032,3.0094,3.0096,3.0045,3.0064,3.0067,3.0084,3.0094,3.0094,3.0075,3.0072,3.01,3.0104,3.0108,3.0175,3.0113,3.0116,3.0117,3.0258,3.0261,3.0263,0,0,0,0,0,0,3.0026,3.0034,3.0093,3.0063,3.007,3.0068,3.0087,3.0085,3.0095,3.0096,3.0095,3.0086,3.0099,3.0104,3.0146,3.0175,3.0117,3.012,3.0256,3.0259,3.0262,3.031,0,0,0,0,0,0,3.0024,3.0033,3.0056,3.0064,3.0072,3.0131,3.0089,3.0087,3.0101,3.0096,3.0106,3.0106,3.0098,3.0142,3.0149,3.0178,3.0122,3.0253,3.0257,3.0261,3.0305,3.0314,3.0321,0,0,0,0,0,3.0021,3.0069,3.0057,3.0065,3.01,3.0133,3.0137,3.0127,3.0103,3.0125,3.0125,3.0106,3.0171,3.0146,3.0154,3.0185,3.0251,3.0256,3.0261,3.0302,3.0312,3.0321,0,0,0,0,0,0,3.0065,3.007,3.0057,3.0109,3.0121,3.0127,3.0155,3.0139,3.0158,3.0153,3.0139,3.0141,3.0185,3.0189,3.0162,3.024,3.0207,3.0213,3.0236,3.0246,3.0254,3.0251,3.0124,0,0,0,0,0,3.008,3.0107,3.011,3.0156,3.0162,3.0157,3.0171,3.0162,3.0174,3.0178,3.0181,3.0193,3.0216,3.0231,3.0252,3.0306,3.0306,3.0331,3.0339,3.0345,3.0351,3.0377,3.0387,3.0279,3.0278,3.0278,0,0,3.0113,3.0119,3.0137,3.0165,3.0173,3.0199,3.0162,3.0193,3.0212,3.0183,3.0222,3.0225,3.0236,3.0284,3.0305,3.0288,3.0381,3.0351,3.0356,3.0358,3.0383,3.0393,3.0402,3.0282,3.0281,3.0281,0,0,3.0186,3.0195,3.0232,3.0241,3.0253,3.0249,3.0258,3.0266,3.0266,3.0305,3.0283,3.0306,3.0346,3.0355,3.0364,3.0438,3.042,3.0445,3.0487,3.0513,3.0521,3.0529,3.0553,3.0562,3.0451,3.0451,3.0451,0,3.0225,3.0266,3.0254,3.0285,3.0297,3.0271,3.0308,3.0317,3.0336,3.0344,3.0326,3.0374,3.038,3.0428,3.0446,3.0455,3.0463,3.0444,3.0521,3.0528,3.0535,3.0558,3.0568,3.0454,3.0454,3.0453,3.0453,0,3.0312,3.034,3.0369,3.0386,3.0402,3.0436,3.0428,3.0445,3.0434,3.0431,3.047,3.0477,3.0498,3.0508,3.0499,3.0554,3.0543,3.0523,3.049,3.0548,3.057,3.0579,3.0458,3.0457,3.0456,3.0456,0,0,3.0414,3.0423,3.0434,3.0441,3.0451,3.0472,3.0504,3.0525,3.0538,3.0552,3.0577,3.0611,3.0591,3.0602,3.0593,3.0616,3.0671,3.0592,3.0592,3.0605,3.0731,3.0745,3.0755,3.066,3.0661,3.0663,3.0729,0,3.0485,3.0541,3.053,3.0584,3.0608,3.0584,3.0611,3.062,3.0619,3.0639,3.0637,3.066,3.0634,3.064,3.0661,3.066,3.0696,3.0655,3.0682,3.0683,3.0678,3.0767,3.0782,3.0844,3.0738,3.0739,3.074,0,3.0576,3.0592,3.0648,3.0652,3.0662,3.0688,3.0704,3.0724,3.0733,3.073,3.0741,3.0727,3.0757,3.0724,3.0765,3.0737,3.0747,3.0748,3.075,3.0751,3.0714,3.0769,3.0864,3.0873,3.0753,3.0752,3.0751,0,3.0643,3.0678,3.0715,3.0722,3.0729,3.0747,3.075,3.0757,3.0769,3.0783,3.0791,3.0809,3.0818,3.0832,3.0822,3.0799,3.0864,3.0831,3.0861,3.0861,3.0875,3.0874,3.0972,3.0885,3.0884,3.0884,3.0884,0,3.0723,3.0758,3.0745,3.0768,3.0805,3.0792,3.0829,3.083,3.0836,3.0858,3.0838,3.0859,3.0845,3.0865,3.0858,3.0891,3.0896,3.0894,3.0891,3.0895,3.0895,3.09,3.0895,3.0887,3.0886,3.0886,3.0885,0,3.0803,3.0796,3.0835,3.0837,3.0839,3.0866,3.0868,3.0889,3.0885,3.0913,3.0918,3.0913,3.0934,3.0926,3.0949,3.0944,3.0987,3.0979,3.0984,3.0981,3.1012,3.1008,3.1115,3.1128,3.1034,3.1035,3.1035,0,3.0854,3.088,3.0885,3.0897,3.0902,3.0924,3.0935,3.0923,3.0936,3.0946,3.0965,3.0985,3.1,3.1035,3.1033,3.105,3.1042,3.1078,3.1044,3.1046,3.104,3.1038,3.1039,3.1085,3.1086,3.1087,3.1087,0,3.0944,3.0939,3.0956,3.0972,3.0987,3.0999,3.1009,3.1021,3.1008,3.1024,3.1045,3.1057,3.1079,3.1099,3.1113,3.1116,3.1099,3.1098,3.1106,3.1109,3.1109,3.1108,3.1,3.1095,3.1095,3.1094,3.1094,3.1093,3.101,3.1031,3.1037,3.1056,3.1062,3.1072,3.1091,3.1089,3.1106,3.1124,3.1115,3.1139,3.1146,3.1164,3.1169,3.1187,3.1173,3.1184,3.1187,3.119,3.1193,3.1108,3.119,3.119,3.119,3.1189,3.1189,0,3.1097,3.1099,3.1118,3.1132,3.1147,3.1129,3.1139,3.1153,3.1174,3.1182,3.1196,3.122,3.1238,3.1236,3.1253,3.1267,3.126,3.1272,3.127,3.127,3.1206,3.1196,3.1277,3.1277,3.1277,3.1277,3.1277,3.1277,3.1144,3.1178,3.1173,3.1209,3.1211,3.1234,3.1241,3.1249,3.1254,3.1281,3.1296,3.1294,3.1298,3.1314,3.1329,3.1328,3.1334,3.1349,3.1345,3.1284,3.1275,3.1267,3.1258,3.1351,3.1351,3.1408,3.1408,3.1409]}]]